Location: S�tio Afonso Gruber
(26.1760°S, 49.5250°W)
Time: 00:06:28
(UTC+00:00)

Intelsat 5-3 Rocket - Pass Details

Date: 06 October 2020
Orbit: 281 x 6111 km, 23.6° (Epoch: 22 October)

Event Time Altitude Azimuth Distance (km) Brightness Sun altitude
Rises 00:17:34 0° 298° (WNW) 3,223 6.6 -38.5°
Reaches altitude 10° 00:19:18 10° 303° (WNW) 2,624 6.0 -38.8°
Enters shadow 00:20:04 16° 305° (NW) 2,388 5.7 -39.0°
Exits shadow 00:51:05 - 98° (E) 8,796 8.1 -44.6°
Sets 00:51:46 0° 98° (E) 8,957 8.2 -44.8°
